This is the latest recevied weather packets stored in our database for station/object KD9JJA. If no packets are shown the sender has not sent any weather packets the latest 10 day(s).
| Time | Temp. | Humidity | Pressure | Rain* | Wind** | Luminosity | Snow |
|---|---|---|---|---|---|---|---|
| 1777903016 | 16.67° C | 77% | 1010 hPa | 0 mm | - | 99 W/m² | - |
| 1777902712 | 16.67° C | 79% | 1010.4 hPa | 0 mm | - | 86 W/m² | - |
| 1777902409 | 16.67° C | 80% | 1010.4 hPa | 0 mm | - | 82 W/m² | - |
| 1777902105 | 16.67° C | 79% | 1010.4 hPa | 0 mm | - | 98 W/m² | - |
| 1777901804 | 16.67° C | 81% | 1010.3 hPa | 0 mm | - | 85 W/m² | - |
| 1777901501 | 16.11° C | 81% | 1010.4 hPa | 0 mm | - | 91 W/m² | - |
| 1777901199 | 16.11° C | 82% | 1010.6 hPa | 0 mm | - | 58 W/m² | - |
| 1777900896 | 16.11° C | 81% | 1010.3 hPa | 0 mm | - | 42 W/m² | - |
| 1777900593 | 16.11° C | 81% | 1010.4 hPa | 0 mm | - | 49 W/m² | - |
| 1777900290 | 16.11° C | 82% | 1010.5 hPa | 0 mm | - | 58 W/m² | - |
| 1777899987 | 15.56° C | 82% | 1010.3 hPa | 0 mm | - | 41 W/m² | - |
| 1777899684 | 15.56° C | 81% | 1010.4 hPa | 0 mm | - | 44 W/m² | - |
| 1777899381 | 15.56° C | 81% | 1010.1 hPa | 0 mm | - | 55 W/m² | - |
| 1777899079 | 15.56° C | 81% | 1010 hPa | 0 mm | - | 63 W/m² | - |
| 1777898775 | 15.56° C | 82% | 1010.2 hPa | 0 mm | - | 54 W/m² | - |
| 1777898473 | 15.56° C | 83% | 1010.2 hPa | 0 mm | - | 51 W/m² | - |
| 1777898171 | 15° C | 82% | 1010.1 hPa | 0 mm | - | 45 W/m² | - |
| 1777897868 | 15° C | 83% | 1009.7 hPa | 0 mm | - | 49 W/m² | - |
| 1777897564 | 15° C | 81% | 1009.8 hPa | 0 mm | - | 38 W/m² | - |
| 1777897259 | 15° C | 82% | 1009.7 hPa | 0 mm | - | 39 W/m² | - |
| 1777896955 | 15° C | 82% | 1009.7 hPa | 0 mm | - | 35 W/m² | - |
| 1777896653 | 15° C | 81% | 1009.5 hPa | 0 mm | - | 28 W/m² | - |
| 1777896350 | 14.44° C | 81% | 1009.6 hPa | 0 mm | - | 30 W/m² | - |
| 1777896048 | 14.44° C | 82% | 1009.2 hPa | 0 mm | - | 29 W/m² | - |
| 1777895745 | 15° C | 81% | 1009.2 hPa | 0 mm | - | 19 W/m² | - |
* Rain latest hour (hover to see other rain measurements)
** Current wind speed in m/s (hover to see current wind gust speed)